Wind_Speed
17 17 18 19 19 18 17 18 20 20 21 23 24 25 26 28 30 33 33 33 34 35 37 39 42 45 47 48 48 49 49 49 50 50 49 49 49 49 49 49 49 49 48
19 18 19 20 20 20 20 21 22 23 24 25 26 27 29 31 33 35 37 37 39 40 43 45 47 50 52 54 55 56 56 57 56 54 53 51 50 50 50 50 50 51 52
22 22 21 21 23 24 24 26 27 27 28 29 30 32 34 36 37 39 41 42 44 45 47 49 51 54 55 58 59 60 61 62 62 61 58 56 54 53 51 51 52 52 53
24 25 24 24 26 27 28 30 32 33 34 36 38 39 40 42 43 45 46 48 50 52 53 54 56 58 60 61 63 65 66 67 67 65 63 61 60 59 56 55 55 55 54
28 28 28 29 31 32 33 35 36 38 40 41 43 45 47 48 50 52 54 55 57 58 59 60 62 63 65 65 67 68 69 69 69 68 66 66 64 64 62 60 58 57 56
31 32 32 35 37 38 39 41 42 45 46 48 49 50 52 55 57 59 61 62 63 64 64 65 66 67 69 70 71 72 72 72 70 68 68 67 65 64 63 62 61 61 59
34 34 36 38 41 44 45 46 48 50 51 53 55 55 57 59 62 64 65 66 67 67 67 68 68 69 71 72 72 73 73 71 68 65 63 62 61 59 58 58 59 60 60
36 37 39 41 44 47 48 50 52 53 54 55 57 58 58 60 62 64 66 67 68 69 70 70 71 72 72 69 66 65 63 61 58 54 53 52 50 48 47 47 49 51 52
39 40 42 44 47 49 50 51 52 53 54 55 57 58 58 59 60 64 66 68 69 70 71 72 73 72 68 63 59 56 54 52 50 48 45 43 42 41 40 39 39 41 43
42 42 43 45 48 49 49 51 50 51 53 54 56 58 60 61 62 64 65 66 67 68 70 71 69 65 61 59 56 53 52 50 48 46 43 41 40 39 38 38 38 39 41
44 44 45 47 48 48 48 49 51 53 56 58 60 61 63 63 64 64 64 66 68 69 70 68 63 59 57 56 55 53 52 50 48 47 45 43 42 41 41 41 42 43 44
46 47 47 46 46 47 48 50 53 55 57 60 62 63 63 63 64 65 66 68 70 70 69 66 61 58 57 57 55 54 53 51 50 49 49 48 47 47 46 46 47 47 48
47 47 46 45 46 48 50 52 55 57 59 61 62 62 62 63 65 67 70 71 71 70 68 65 62 61 60 59 58 56 55 55 54 54 54 53 53 53 52 52 52 52 51
47 46 47 49 51 52 54 55 58 60 61 61 60 60 62 64 68 70 71 71 70 67 65 63 62 62 62 61 60 59 59 59 59 59 59 59 59 58 58 58 58 57 55
49 50 51 53 54 55 56 58 60 60 60 59 59 61 64 68 70 71 71 71 69 66 64 63 62 60 60 60 60 61 61 62 63 64 63 63 63 63 63 63 62 61 59
53 54 55 55 55 56 57 58 58 57 57 59 61 64 67 68 69 69 69 69 68 67 65 63 62 61 59 58 57 58 59 60 61 62 62 62 63 64 64 64 64 64 62
54 54 54 54 55 56 56 56 55 56 58 60 63 65 66 67 68 68 67 66 66 66 66 63 62 59 55 51 49 50 51 51 52 53 54 55 56 57 59 61 63 63 62
53 53 54 55 56 56 55 54 55 57 59 61 63 65 65 66 65 65 65 64 64 63 61 58 53 49 46 44 42 41 40 40 41 41 43 44 44 46 50 54 57 59 60
54 57 59 59 58 56 54 54 56 58 60 62 63 64 63 63 63 63 62 60 57 54 52 49 44 42 40 39 37 35 33 33 33 34 35 36 38 41 44 47 50 53 55
59 63 65 62 58 53 53 55 57 59 61 62 62 62 62 62 61 59 54 50 47 46 44 42 37 35 33 31 30 29 28 27 28 30 32 33 35 38 39 41 43 45 48
64 64 62 57 52 51 53 56 58 59 60 60 60 61 60 57 54 49 45 43 43 41 39 34 29 26 25 25 25 24 22 23 24 25 27 28 29 30 32 34 35 37 39
60 57 52 49 50 51 54 56 58 58 58 59 58 57 53 48 44 42 40 39 39 35 29 24 21 20 20 20 19 18 16 17 17 19 18 18 19 20 22 23 25 27 30
50 46 46 49 51 52 54 55 56 56 56 56 53 48 44 41 40 37 35 34 32 27 20 16 14 16 15 14 12 11 10 10 10 11 10 10 12 13 14 15 16 18 21
44 45 47 50 52 52 53 53 53 53 52 48 44 39 37 36 35 32 29 26 21 16 12 10 10 9 8 7 6 4 4 4 4 5 4 4 6 7 8 10 12 14 17
44 46 48 50 51 51 51 50 49 46 43 38 35 33 33 32 30 26 20 15 12 9 7 5 4 3 3 2 1 1 1 1 2 2 4 5 6 7 8 10 12 15 18
46 48 48 49 50 49 48 45 41 37 33 30 28 29 29 26 21 16 11 7 4 2 2 3 3 4 5 5 4 4 3 2 3 5 7 9 11 12 12 13 14 16 19
Wind_Direction
315 317 318 314 310 303 297 289 286 285 284 287 289 289 289 288 288 289 289 289 288 287 285 284 284 283 283 282 281 279 277 276 275 274 272 270 268 266 265 264 263 262 261
321 321 320 317 311 304 299 293 290 287 286 287 288 290 292 293 293 292 292 291 291 290 289 288 288 287 287 286 285 284 283 281 278 275 273 271 268 266 265 264 262 261 260
316 315 315 312 305 304 303 299 295 293 290 289 289 292 293 294 295 296 295 293 291 289 288 289 288 287 287 286 285 285 283 282 280 278 276 274 271 268 264 263 261 260 258
309 309 308 305 302 303 301 299 297 294 290 289 288 289 291 292 292 292 292 291 290 289 289 289 288 287 286 286 285 284 283 282 280 278 276 274 273 270 267 264 260 258 256
303 304 305 302 300 300 299 298 297 295 291 289 288 287 287 288 289 289 289 288 288 287 287 287 286 286 286 285 284 283 283 282 280 277 275 273 271 269 268 265 261 257 254
300 300 301 300 300 299 298 297 297 294 292 290 288 287 287 287 287 288 288 288 288 287 286 286 286 286 285 285 285 284 282 281 279 277 274 272 270 268 266 262 259 256 254
298 299 300 300 300 298 296 296 295 292 290 287 285 284 284 285 286 286 286 286 286 286 285 285 285 286 286 285 285 284 283 281 278 276 272 270 268 266 264 260 257 254 253
295 295 298 298 298 296 295 294 291 290 287 286 285 284 283 284 285 286 286 286 286 285 286 286 286 287 288 288 287 285 283 280 276 272 268 266 265 263 261 259 255 252 250
290 292 296 297 297 295 295 294 293 291 289 288 286 286 285 284 284 285 287 287 288 288 288 288 288 289 289 288 285 283 281 277 273 268 265 261 260 259 258 256 252 249 248
285 289 293 295 295 295 296 295 295 294 292 291 289 287 286 286 284 284 286 288 290 290 290 290 290 289 287 285 282 280 277 274 270 266 262 259 258 257 256 254 251 250 250
285 288 290 291 292 294 295 294 294 293 292 291 289 288 288 288 288 288 288 289 290 291 291 292 291 287 283 280 278 276 275 272 269 265 262 259 258 257 255 253 252 252 252
287 288 289 290 292 294 294 294 294 292 291 290 289 289 290 291 292 293 292 292 292 293 293 294 292 288 283 280 277 275 273 271 269 265 263 262 261 259 258 256 255 254 255
291 290 292 294 297 298 297 297 294 292 291 291 291 292 292 294 295 296 296 295 294 294 294 294 292 288 285 282 279 277 274 271 268 266 264 263 263 262 261 260 258 257 257
295 296 297 299 300 299 298 296 294 292 292 292 292 293 294 296 297 296 296 295 294 294 293 291 290 288 285 282 280 277 274 271 268 266 265 264 264 263 262 262 261 260 259
301 301 301 301 300 298 296 295 294 294 295 295 295 296 297 297 297 296 296 295 295 293 291 290 288 286 283 281 278 276 273 271 269 266 265 264 264 263 262 261 261 260 258
301 301 301 300 300 299 298 297 296 295 296 297 299 299 299 298 297 296 296 295 295 294 292 290 288 286 283 280 278 276 273 270 268 267 265 264 262 261 260 258 257 256 255
298 297 297 297 299 300 299 298 297 296 298 299 300 300 299 298 297 296 296 296 295 294 292 291 290 287 284 282 280 278 276 273 270 268 266 264 262 260 257 255 253 252 251
294 294 295 297 298 299 298 297 297 298 300 300 300 299 299 298 298 297 297 296 295 294 293 292 290 287 284 284 284 282 280 275 269 266 264 263 261 258 255 252 250 248 247
294 295 293 294 295 297 297 297 298 300 300 300 300 300 300 300 299 299 298 297 297 296 294 292 289 285 284 285 284 282 279 273 267 264 262 260 257 255 252 250 248 246 245
294 293 291 291 293 295 297 298 300 301 301 301 302 302 302 301 301 300 300 300 299 298 296 293 289 285 284 283 283 282 278 271 265 262 260 257 254 253 251 249 247 245 244
292 291 292 293 295 297 299 300 301 302 303 304 305 304 303 302 302 302 303 302 300 299 297 293 289 284 282 283 286 285 279 271 266 263 259 255 252 250 248 246 244 242 240
290 292 294 296 298 299 300 301 303 305 306 306 305 304 304 304 305 305 304 303 301 301 299 294 289 285 285 288 289 286 278 269 262 259 255 251 250 246 243 241 238 235 231
293 296 299 300 300 301 303 305 306 308 307 306 305 305 306 307 307 305 303 301 299 299 298 294 291 292 291 293 290 282 273 260 248 250 250 243 244 242 241 237 232 226 221
301 302 301 301 303 304 306 308 309 308 307 306 307 308 310 312 311 309 305 301 299 298 297 296 298 299 298 297 291 272 253 242 241 249 253 247 251 250 248 242 232 225 219
303 303 303 305 306 308 310 310 309 307 306 308 311 314 316 317 316 314 311 307 303 301 301 305 314 325 341 353 4 354 312 292 279 284 296 294 288 281 270 256 242 232 225
305 306 307 308 309 310 310 309 307 307 308 312 317 320 321 323 324 324 323 322 329 6 47 51 55 58 59 60 56 49 37 7 334 316 307 300 292 284 276 269 257 244 236
Height
5857 5855 5854 5853 5852 5852 5852 5851 5850 5850 5849 5848 5847 5845 5844 5843 5841 5838 5837 5837 5836 5834 5833 5831 5830 5829 5827 5826 5825 5823 5823 5822 5822 5822 5822 5823 5824 5825 5825 5826 5827 5828 5829
5854 5853 5852 5850 5849 5848 5848 5846 5846 5845 5844 5843 5841 5839 5838 5836 5834 5831 5829 5828 5826 5825 5823 5821 5820 5818 5816 5814 5812 5810 5809 5809 5808 5808 5809 5810 5811 5813 5814 5815 5816 5817 5818
5851 5850 5850 5848 5846 5845 5844 5842 5841 5840 5838 5837 5835 5833 5831 5828 5826 5824 5821 5818 5816 5814 5812 5810 5808 5806 5804 5802 5799 5797 5796 5794 5794 5793 5794 5795 5797 5799 5800 5802 5803 5804 5805
5849 5847 5846 5844 5842 5841 5839 5837 5835 5834 5831 5829 5827 5825 5822 5819 5817 5814 5812 5809 5805 5802 5799 5797 5794 5792 5790 5788 5786 5783 5782 5780 5779 5779 5779 5779 5781 5782 5784 5787 5789 5790 5792
5844 5842 5841 5838 5836 5834 5832 5829 5828 5825 5823 5820 5818 5815 5812 5809 5806 5803 5800 5797 5794 5790 5786 5783 5780 5777 5774 5772 5770 5768 5767 5765 5764 5763 5763 5763 5764 5766 5767 5770 5773 5775 5777
5838 5836 5835 5831 5828 5825 5823 5821 5818 5815 5812 5809 5806 5804 5801 5797 5793 5790 5786 5783 5779 5776 5772 5768 5764 5761 5759 5756 5754 5752 5749 5747 5746 5745 5744 5745 5746 5747 5749 5752 5755 5759 5762
5832 5829 5827 5824 5820 5816 5813 5811 5808 5804 5801 5797 5794 5792 5789 5785 5780 5776 5772 5768 5765 5761 5757 5753 5748 5744 5741 5739 5737 5734 5731 5729 5727 5725 5725 5725 5727 5728 5731 5733 5737 5741 5746
5824 5821 5818 5815 5811 5807 5804 5801 5797 5793 5788 5783 5780 5777 5774 5772 5766 5761 5756 5752 5748 5745 5740 5735 5731 5727 5723 5720 5718 5715 5713 5711 5709 5708 5708 5709 5710 5712 5715 5717 5721 5725 5730
5816 5812 5809 5805 5801 5796 5792 5788 5784 5780 5776 5771 5766 5763 5759 5756 5753 5747 5740 5735 5731 5728 5723 5718 5713 5709 5705 5703 5701 5699 5697 5696 5695 5695 5695 5696 5698 5700 5702 5705 5708 5713 5717
5806 5803 5800 5795 5790 5785 5781 5776 5772 5768 5764 5759 5754 5749 5745 5741 5737 5734 5728 5721 5716 5712 5707 5702 5697 5692 5689 5687 5685 5683 5682 5682 5682 5683 5684 5685 5687 5689 5691 5694 5698 5702 5706
5796 5793 5789 5784 5779 5775 5771 5766 5761 5756 5751 5746 5740 5734 5729 5724 5719 5716 5713 5707 5702 5696 5691 5686 5681 5678 5675 5671 5670 5668 5667 5667 5669 5670 5671 5673 5675 5677 5680 5683 5687 5690 5694
5786 5782 5778 5773 5769 5764 5759 5755 5749 5744 5738 5732 5726 5720 5714 5709 5703 5698 5695 5690 5685 5679 5674 5669 5665 5662 5659 5656 5654 5653 5653 5653 5654 5656 5656 5659 5661 5664 5667 5670 5674 5677 5681
5774 5770 5766 5761 5757 5752 5747 5742 5736 5730 5724 5718 5712 5706 5700 5694 5687 5681 5676 5671 5667 5662 5657 5653 5648 5644 5641 5639 5637 5637 5637 5637 5638 5639 5640 5643 5646 5648 5651 5655 5659 5663 5667
5761 5758 5753 5748 5743 5738 5733 5727 5721 5715 5709 5703 5697 5691 5685 5679 5672 5665 5659 5653 5649 5646 5641 5637 5632 5627 5624 5621 5620 5619 5619 5619 5620 5621 5622 5625 5628 5631 5634 5638 5642 5647 5651
5749 5746 5740 5735 5730 5724 5719 5713 5706 5700 5694 5688 5682 5676 5670 5663 5655 5648 5641 5634 5629 5626 5624 5619 5615 5611 5607 5603 5601 5599 5599 5599 5599 5600 5603 5605 5608 5611 5615 5619 5624 5629 5634
5737 5731 5726 5721 5716 5710 5704 5698 5692 5686 5681 5674 5668 5661 5654 5646 5639 5631 5624 5617 5610 5605 5603 5600 5595 5592 5588 5584 5581 5579 5578 5578 5578 5579 5582 5585 5588 5591 5595 5600 5605 5610 5616
5725 5719 5713 5708 5702 5697 5691 5685 5679 5673 5667 5660 5653 5645 5638 5630 5622 5615 5607 5600 5593 5586 5582 5580 5575 5571 5568 5565 5563 5560 5559 5558 5559 5559 5561 5564 5568 5571 5575 5579 5585 5590 5597
5712 5706 5701 5695 5689 5684 5678 5672 5665 5659 5653 5645 5637 5630 5622 5614 5606 5598 5590 5583 5575 5568 5563 5561 5558 5554 5551 5549 5547 5545 5543 5542 5543 5544 5545 5548 5551 5553 5556 5560 5565 5571 5577
5699 5693 5687 5682 5676 5671 5665 5658 5652 5646 5638 5630 5622 5614 5606 5598 5590 5581 5573 5566 5559 5553 5547 5544 5542 5540 5538 5536 5534 5532 5531 5530 5530 5532 5534 5536 5538 5539 5541 5544 5548 5553 5560
5685 5679 5673 5667 5662 5658 5652 5644 5638 5631 5624 5616 5607 5599 5590 5581 5573 5565 5558 5551 5545 5540 5535 5531 5529 5528 5527 5525 5523 5522 5521 5520 5521 5522 5523 5525 5526 5527 5528 5531 5535 5539 5544
5671 5665 5659 5654 5649 5645 5638 5631 5625 5617 5609 5601 5592 5583 5574 5566 5557 5550 5545 5539 5534 5529 5524 5521 5520 5519 5518 5517 5515 5514 5513 5513 5513 5513 5514 5515 5516 5517 5518 5520 5523 5527 5531
5657 5651 5646 5641 5636 5631 5625 5618 5611 5603 5595 5586 5578 5568 5560 5552 5546 5540 5535 5529 5524 5519 5515 5513 5513 5512 5512 5510 5509 5508 5507 5507 5507 5508 5507 5508 5508 5510 5511 5513 5515 5518 5522
5644 5639 5635 5630 5625 5620 5612 5604 5597 5589 5581 5572 5564 5556 5549 5542 5536 5531 5526 5521 5516 5512 5509 5508 5508 5508 5507 5506 5505 5504 5503 5503 5503 5503 5503 5504 5505 5506 5507 5508 5511 5514 5517
5633 5628 5624 5618 5612 5606 5599 5591 5584 5576 5568 5560 5553 5546 5540 5533 5527 5522 5517 5513 5510 5508 5506 5506 5505 5505 5504 5503 5502 5502 5501 5502 5502 5501 5501 5502 5503 5503 5504 5506 5508 5510 5513
5623 5617 5612 5605 5599 5592 5587 5579 5572 5564 5557 5551 5544 5538 5532 5526 5521 5515 5511 5509 5507 5506 5505 5505 5504 5504 5503 5502 5502 5501 5501 5501 5501 5501 5500 5501 5501 5501 5502 5503 5505 5507 5509
5611 5605 5599 5593 5586 5580 5574 5568 5561 5555 5549 5543 5538 5532 5527 5521 5516 5512 5509 5507 5506 5506 5505 5505 5505 5504 5504 5503 5502 5502 5502 5502 5501 5500 5499 5498 5498 5498 5498 5499 5500 5502 5504